Vorticity
6 9 11 16 24 19 10 22 18 13 27 -3 3 32 15 13 9 3 7 -7 8 11 16 9 11 6 11 11 12 10 13 7 8 3 2 9 5 4 2 0 17 17 -6 3 8
19 12 20 19 14 15 7 13 4 10 27 17 1 9 19 27 15 8 1 -1 9 16 3 12 11 10 9 4 14 -7 12 7 7 9 20 9 5 13 11 1 -8 11 4 1 8
10 13 13 6 8 7 6 20 6 19 9 14 18 6 4 16 30 14 6 7 -18 13 15 13 11 10 10 10 2 32 4 3 4 11 16 9 15 14 15 9 10 7 16 5 4
17 9 11 11 12 7 9 21 17 15 15 15 14 13 4 7 11 65 23 5 20 12 12 8 12 10 1 6 6 -9 17 6 12 9 -2 -9 8 7 5 12 15 -4 -5 6 7
14 9 9 6 13 14 9 10 16 12 13 15 13 14 15 11 18 11 50 -0 19 -11 11 2 15 11 -7 15 23 11 19 1 8 27 11 14 5 5 13 10 -0 4 6 8 7
6 16 15 17 16 14 14 13 19 10 6 6 5 7 16 11 9 4 18 18 -6 5 12 13 9 -5 19 15 0 28 -20 25 1 16 8 3 9 6 -5 4 8 3 13 5 10
7 8 11 10 24 10 10 14 10 8 7 3 6 5 7 16 9 26 12 36 5 11 13 13 10 9 0 6 12 2 0 4 8 8 9 5 -4 5 -18 17 7 14 7 8 7
9 17 14 16 11 20 19 29 11 4 5 6 2 1 9 24 22 35 25 28 -9 22 4 9 18 10 1 1 25 -17 20 3 -7 10 5 4 13 31 15 -4 -1 9 7 7 7
13 20 18 17 13 12 9 12 7 5 3 4 12 21 23 22 19 34 1 9 22 10 2 15 5 0 -5 14 8 20 7 4 21 26 -13 11 9 7 14 18 26 8 4 6 8
20 18 20 22 18 16 4 4 15 11 -3 8 20 12 6 27 35 29 9 2 11 24 7 7 -0 9 -3 1 1 10 3 25 -10 22 17 -3 4 -9 -1 8 -11 -9 13 19 17
16 21 34 3 40 47 14 16 19 10 13 10 4 25 23 33 16 29 13 11 3 -8 1 9 -0 9 -2 0 -1 2 18 -6 30 -7 26 16 3 17 3 15 4 2 9 15 15
-4 20 24 13 21 28 16 11 11 13 12 15 7 20 27 15 19 26 -41 -2 9 2 1 2 18 -9 10 11 -14 16 21 -0 15 12 8 12 10 6 4 9 9 6 6 4 3
5 8 15 28 30 27 20 20 19 18 14 29 29 29 21 -35 48 13 14 20 18 6 1 17 50 7 30 5 9 10 9 8 -0 10 3 14 9 9 11 5 13 11 10 9 10
16 7 5 1 8 4 12 13 12 3 4 15 9 4 23 5 11 32 9 -4 19 8 -1 19 -10 30 -0 3 1 7 10 19 6 15 -4 9 23 21 10 18 15 15 14 13 14
17 10 12 3 2 1 5 -20 -15 15 7 3 16 -9 23 -5 43 19 24 41 49 8 -23 -4 13 13 13 2 3 14 9 11 8 5 9 10 3 29 16 15 14 14 13 12 12
23 12 11 12 7 15 8 21 14 13 -6 24 20 7 16 11 50 19 47 12 -8 5 -20 -5 31 -5 10 13 7 6 6 8 6 7 15 8 -8 20 2 7 13 12 16 11 9
20 18 12 9 21 2 17 16 -7 17 9 8 -5 11 -7 9 10 16 11 -15 5 26 20 27 38 27 16 7 -0 3 -3 5 8 7 12 7 6 -20 9 22 12 9 12 10 10
14 16 21 14 5 -3 7 3 8 24 29 20 2 20 6 7 -10 4 3 23 17 43 2 9 17 23 29 2 19 -12 -12 -1 7 10 13 16 15 29 13 -7 0 3 5 5 5
9 19 11 8 9 3 10 11 13 6 8 6 -2 6 10 4 18 3 10 10 1 -10 17 2 1 41 23 10 27 61 -14 3 13 10 11 13 9 17 14 18 8 5 6 5 5
12 18 12 5 12 23 17 14 22 8 -2 -5 14 6 11 5 10 5 11 9 -0 16 3 12 3 14 11 16 -12 -8 17 10 7 10 9 18 12 16 20 8 10 6 4 4 4
-8 13 10 9 22 8 13 16 -6 2 4 17 12 19 12 2 11 1 13 13 8 -9 24 -5 15 17 5 7 16 10 14 -5 0 4 9 8 19 35 33 7 6 5 7 7 7
9 13 14 17 17 13 10 -0 0 1 6 16 13 18 11 7 6 2 12 21 13 3 5 -4 13 4 4 10 -2 -1 13 8 -1 18 8 3 14 23 14 0 -2 4 3 6 6
9 9 11 16 13 9 8 3 -1 1 3 17 17 1 23 3 10 6 8 17 4 -2 8 13 15 7 12 21 18 11 7 2 3 -9 11 11 23 0 2 -5 -4 -4 7 7 6
7 7 14 10 15 9 5 9 2 -0 2 13 11 10 13 12 -2 22 15 2 10 7 4 9 15 4 16 20 18 14 18 13 -1 9 5 -3 8 22 7 -6 3 2 7 6 8
11 4 5 2 8 23 15 14 6 2 7 3 9 11 4 7 3 9 3 9 6 17 9 -5 12 4 1 0 4 12 14 15 9 -19 6 12 7 26 8 -3 1 4 7 5 13
8 12 6 4 14 7 10 22 10 13 12 19 6 8 8 9 3 17 15 7 2 21 5 7 4 11 9 10 9 7 3 7 19 19 7 -22 3 0 -12 4 6 7 7 8 7
11 10 14 3 8 7 7 6 7 4 15 24 10 12 4 2 8 5 13 7 -0 13 21 4 19 3 15 6 14 33 38 10 4 9 24 9 28 12 4 5 9 6 16 18 13
Height
3045 3040 3035 3030 3026 3023 3021 3020 3019 3018 3019 3023 3023 3025 3027 3030 3035 3042 3042 3049 3058 3063 3066 3072 3077 3083 3087 3093 3098 3102 3109 3109 3114 3119 3125 3129 3130 3131 3135 3139 3140 3142 3143 3145 3148
3038 3032 3026 3021 3018 3016 3014 3013 3012 3011 3012 3014 3016 3019 3019 3021 3026 3028 3036 3046 3055 3058 3063 3066 3072 3079 3083 3089 3091 3097 3101 3104 3114 3119 3120 3125 3126 3131 3131 3134 3138 3138 3141 3143 3146
3031 3026 3021 3017 3014 3010 3009 3007 3007 3006 3006 3007 3010 3013 3014 3016 3017 3019 3033 3042 3050 3053 3060 3062 3069 3077 3081 3085 3089 3092 3096 3105 3111 3111 3114 3119 3122 3127 3128 3132 3135 3137 3138 3140 3143
3025 3020 3015 3011 3008 3005 3002 3002 3001 3001 3002 3003 3005 3007 3009 3012 3019 3020 3028 3038 3046 3050 3055 3059 3065 3072 3078 3080 3085 3090 3094 3102 3103 3105 3110 3114 3121 3121 3125 3130 3131 3130 3132 3137 3140
3021 3015 3011 3006 3002 3000 2998 2997 2998 2997 2998 2999 3000 3002 3004 3006 3010 3016 3019 3032 3037 3044 3049 3054 3062 3069 3073 3078 3084 3085 3093 3097 3099 3101 3104 3111 3115 3119 3120 3122 3124 3126 3130 3133 3136
3018 3011 3006 3001 2998 2996 2994 2994 2994 2995 2995 2997 2997 2998 3000 3002 3006 3011 3015 3023 3032 3039 3045 3051 3059 3068 3072 3076 3081 3083 3090 3093 3097 3099 3102 3106 3111 3113 3116 3118 3120 3123 3126 3129 3131
3016 3008 3002 2997 2994 2992 2991 2991 2991 2992 2993 2994 2994 2994 2995 2998 3000 3004 3011 3017 3026 3034 3041 3049 3060 3067 3070 3074 3078 3081 3087 3090 3094 3097 3100 3104 3106 3106 3112 3114 3117 3119 3122 3124 3127
3011 3004 2997 2994 2991 2989 2987 2986 2988 2989 2991 2992 2992 2991 2989 2993 2996 2999 3007 3013 3022 3031 3040 3048 3056 3062 3067 3073 3075 3080 3085 3087 3090 3094 3098 3100 3100 3103 3107 3110 3112 3115 3118 3120 3123
3009 3001 2994 2990 2988 2987 2987 2986 2987 2988 2989 2989 2989 2989 2988 2989 2992 2998 3004 3011 3020 3028 3038 3047 3054 3059 3065 3068 3074 3077 3079 3083 3088 3089 3094 3095 3099 3101 3102 3105 3107 3110 3113 3115 3118
3007 2999 2993 2988 2984 2983 2985 2985 2985 2986 2987 2987 2986 2989 2987 2988 2991 2995 2995 3008 3018 3026 3035 3044 3050 3055 3060 3064 3066 3069 3074 3079 3084 3085 3087 3092 3093 3097 3098 3100 3103 3105 3108 3110 3112
3007 2999 2992 2988 2981 2979 2982 2983 2987 2987 2985 2986 2985 2984 2985 2989 2993 2998 3005 3010 3017 3013 3024 3039 3046 3045 3052 3060 3067 3070 3073 3076 3081 3081 3085 3088 3091 3093 3094 3095 3099 3100 3101 3104 3106
3012 3002 2995 2989 2984 2981 2982 2983 2984 2986 2985 2984 2984 2984 2986 2987 2994 3001 3007 3013 3017 3022 3034 3041 3039 3046 3057 3062 3065 3066 3069 3074 3077 3079 3083 3087 3087 3089 3089 3090 3093 3094 3096 3098 3099
3018 3009 3002 2995 2991 2987 2986 2986 2985 2985 2986 2987 2985 2987 2989 2983 2991 3000 3007 3012 3017 3027 3032 3037 3042 3044 3049 3057 3061 3066 3068 3071 3075 3075 3079 3083 3082 3082 3084 3084 3086 3088 3090 3091 3092
3021 3014 3009 3004 3000 2995 2993 2991 2990 2988 2989 2993 2994 2995 2997 2995 2999 3004 3009 3013 3018 3029 3037 3041 3041 3043 3047 3054 3060 3063 3067 3070 3071 3074 3078 3079 3075 3076 3076 3078 3080 3082 3083 3084 3086
3024 3018 3013 3009 3006 3003 3002 2997 2994 2993 2993 3004 2999 3000 2999 3002 3006 3004 3009 3011 3018 3023 3033 3037 3041 3043 3046 3051 3058 3061 3064 3069 3071 3073 3075 3076 3078 3072 3072 3073 3075 3076 3078 3080 3082
3027 3021 3016 3012 3008 3006 3003 3000 2998 2999 3003 3009 3006 3004 3004 3006 3007 3010 3010 3016 3022 3029 3034 3037 3040 3044 3046 3049 3054 3060 3064 3068 3070 3073 3073 3071 3074 3069 3068 3070 3071 3073 3075 3077 3078
3029 3024 3019 3015 3013 3009 3006 3004 3004 3007 3015 3016 3013 3012 3010 3009 3012 3013 3016 3021 3025 3032 3036 3037 3038 3041 3043 3048 3053 3057 3062 3067 3071 3070 3066 3067 3071 3066 3066 3068 3068 3070 3072 3074 3076
3031 3026 3023 3018 3017 3015 3013 3010 3012 3018 3016 3019 3018 3019 3019 3019 3019 3021 3024 3024 3029 3030 3034 3036 3041 3039 3038 3045 3048 3054 3059 3058 3056 3055 3059 3066 3065 3062 3062 3066 3064 3066 3070 3073 3074
3034 3030 3026 3023 3021 3020 3019 3015 3021 3022 3022 3022 3022 3024 3023 3022 3024 3025 3028 3029 3031 3032 3035 3036 3038 3037 3038 3043 3048 3052 3056 3057 3057 3057 3059 3059 3061 3059 3059 3061 3062 3066 3068 3070 3071
3037 3033 3028 3026 3025 3024 3022 3021 3025 3025 3025 3026 3025 3023 3025 3026 3028 3028 3030 3032 3033 3035 3036 3037 3040 3042 3044 3046 3050 3051 3054 3058 3058 3059 3053 3053 3053 3051 3054 3057 3061 3064 3066 3067 3068
3041 3036 3032 3029 3028 3027 3025 3025 3028 3028 3028 3027 3027 3028 3028 3028 3030 3031 3033 3034 3034 3037 3037 3038 3040 3046 3047 3047 3049 3051 3052 3054 3055 3056 3050 3043 3049 3050 3051 3056 3060 3061 3063 3064 3064
3042 3039 3035 3032 3033 3030 3029 3029 3030 3030 3029 3028 3028 3028 3030 3031 3032 3034 3035 3035 3036 3037 3039 3039 3041 3044 3047 3045 3047 3048 3051 3053 3054 3054 3054 3052 3052 3051 3053 3054 3058 3059 3060 3060 3059
3042 3040 3037 3035 3034 3034 3033 3032 3031 3031 3031 3029 3029 3029 3029 3032 3034 3033 3032 3034 3034 3036 3038 3040 3041 3044 3046 3048 3045 3045 3047 3050 3051 3051 3051 3052 3050 3052 3054 3054 3056 3055 3056 3055 3053
3042 3039 3038 3036 3034 3034 3034 3034 3033 3033 3032 3030 3030 3030 3031 3032 3032 3033 3033 3034 3035 3037 3039 3040 3040 3041 3040 3041 3042 3042 3044 3046 3049 3051 3051 3051 3051 3050 3051 3054 3055 3052 3052 3050 3048
3042 3041 3037 3036 3034 3033 3033 3033 3033 3033 3032 3031 3030 3030 3032 3033 3033 3033 3033 3034 3035 3036 3038 3040 3041 3041 3040 3040 3040 3040 3041 3043 3043 3046 3049 3049 3050 3051 3052 3052 3050 3049 3048 3046 3044
3036 3036 3036 3034 3033 3032 3032 3032 3032 3031 3031 3030 3030 3030 3030 3032 3033 3033 3033 3034 3035 3035 3036 3037 3038 3039 3039 3038 3038 3038 3038 3038 3039 3040 3042 3044 3044 3045 3047 3045 3046 3045 3045 3044 3041
3036 3033 3032 3032 3031 3031 3032 3030 3031 3030 3029 3028 3028 3029 3030 3029 3030 3030 3031 3032 3033 3033 3034 3037 3037 3038 3038 3037 3036 3035 3030 3032 3033 3035 3037 3038 3041 3042 3043 3044 3044 3044 3042 3039 3036